Location: Bothwell
(42.3833°S, 147.0000°E)
Time: 19:54:39
(UTC+11:00)

BlueWalker 3 - Pass Details

Date: 28 September 2023
Orbit: 489 x 504 km, 53.2° (Epoch: 29 November)

Event Time Altitude Azimuth Distance (km) Brightness Sun altitude
Rises 19:48:31 0° 250° (WSW) 2,609 7.3 -17.8°
Reaches altitude 10° 19:51:43 10° 278° (W) 1,710 5.5 -18.3°
Maximum altitude 19:53:31 13° 306° (NW) 1,523 4.8 -18.6°
Drops below altitude 10° 19:55:19 10° 334° (NNW) 1,694 4.7 -18.9°
Enters shadow 19:56:47 - 350° (N) 2,038 4.9 -19.2°
